Wind_Speed
21 23 22 24 19 19 34 37 32 31 33 31 20 26 27 23 13 15 3 14 15 14 13 14 14 13 14 14 14 15 15 14 13 13 12 12 11 11 11 12 14 13 13 13 12 13 13 13 13
27 25 26 27 30 31 37 40 44 35 26 25 28 23 29 25 18 17 18 14 15 17 14 14 15 14 13 15 15 16 16 16 15 13 12 12 12 11 12 13 14 14 14 13 13 12 12 12 11
33 31 30 27 36 47 37 47 42 36 27 25 23 30 28 28 16 17 15 18 16 17 16 15 16 16 14 15 16 16 17 17 16 15 14 13 12 11 12 13 13 14 14 13 12 12 12 11 10
36 37 39 43 50 49 56 36 37 36 34 28 28 28 30 28 18 19 21 19 17 15 15 17 17 18 18 17 17 18 18 18 17 16 15 14 13 12 12 12 12 13 13 12 12 12 12 10 8
38 42 45 53 63 57 46 51 33 36 35 35 28 33 26 28 21 21 22 21 21 20 16 18 20 21 19 19 19 19 19 19 18 18 17 16 14 14 14 14 13 13 13 12 12 12 12 10 8
39 43 41 60 55 55 54 42 44 43 39 32 35 30 27 26 27 27 26 23 21 17 19 19 23 22 20 19 20 20 21 21 20 19 18 17 16 15 15 14 13 13 13 12 12 11 10 8 8
40 34 50 46 38 48 53 50 43 41 39 39 34 37 33 25 29 29 25 29 25 23 21 20 25 25 23 21 21 22 22 22 21 21 19 18 18 17 17 16 14 13 13 13 11 11 10 8 9
34 38 40 42 42 30 41 49 48 45 41 37 36 39 39 31 29 28 30 31 31 26 23 20 25 29 27 24 23 23 23 23 23 22 21 20 19 18 18 17 15 15 14 13 11 9 8 7 7
31 37 41 40 34 42 18 23 45 47 46 37 37 35 31 32 34 31 34 33 29 23 23 24 29 31 30 27 26 26 26 25 25 24 23 23 22 21 19 17 16 16 15 13 12 11 10 9 7
26 41 35 34 34 38 32 36 21 45 50 49 41 39 30 30 34 34 34 35 30 27 26 27 31 31 32 30 29 29 28 27 26 25 24 22 21 21 21 20 19 17 16 15 13 11 11 10 8
24 37 42 34 25 36 44 35 37 37 46 52 53 45 47 38 37 38 35 34 31 27 29 28 33 32 35 32 30 30 29 29 28 26 25 22 22 22 21 21 21 19 16 14 13 12 11 10 9
25 31 41 47 38 33 29 46 45 43 44 49 52 54 46 40 45 39 38 34 35 29 28 29 33 35 35 33 31 30 30 29 28 27 25 23 23 22 22 22 19 16 16 15 14 13 13 11 11
22 22 30 33 44 43 38 29 46 54 47 36 42 49 54 45 41 37 38 37 34 34 32 32 31 35 35 33 31 31 31 30 29 27 26 24 23 22 23 21 20 18 17 16 15 15 14 13 12
17 21 27 29 30 34 37 39 31 55 45 44 29 37 55 51 48 37 37 40 36 30 33 31 34 32 37 34 32 31 31 30 29 28 27 25 25 24 24 22 21 20 18 17 16 17 15 13 13
13 22 23 26 29 31 27 39 38 40 50 45 38 26 39 45 56 41 39 41 33 34 32 33 36 35 32 38 35 33 32 31 30 29 28 27 28 27 26 24 22 21 20 19 18 17 17 15 14
16 18 22 15 7 16 19 38 23 34 43 41 39 26 31 41 48 46 47 44 38 36 35 34 36 38 32 39 38 35 32 31 31 30 30 30 30 29 29 26 24 23 23 21 19 17 16 16 15
11 15 16 16 4 10 15 21 17 23 29 38 39 29 23 31 46 56 53 44 41 36 36 34 37 38 37 37 40 38 34 32 31 32 32 32 31 30 30 29 26 25 25 23 21 19 19 18 17
13 20 13 12 6 10 12 18 14 18 24 24 36 33 26 26 35 45 54 48 41 41 37 32 37 38 37 38 41 40 38 35 34 33 33 34 32 32 30 30 29 27 28 26 23 22 21 21 20
12 10 11 8 8 7 8 10 13 22 23 25 36 37 29 25 28 40 42 44 42 39 38 36 36 37 39 40 42 43 42 37 35 35 35 36 35 34 34 33 31 29 30 28 25 24 24 24 22
10 10 10 6 7 7 4 16 10 12 21 23 26 30 33 26 24 37 41 44 42 39 35 34 38 35 36 38 36 42 41 39 37 36 36 36 35 34 34 34 32 33 32 31 30 27 27 26 25
5 3 6 8 8 6 7 8 12 9 13 20 31 22 31 31 31 27 35 41 43 43 41 41 40 38 36 34 38 39 43 45 45 40 39 38 37 37 35 35 34 34 33 30 30 29 28 27 25
5 3 7 7 7 3 1 4 15 6 11 16 23 30 20 31 27 28 26 39 44 45 41 39 39 39 37 37 41 42 44 46 45 40 41 40 38 38 37 36 34 34 34 33 32 30 28 28 27
5 6 5 5 6 13 7 5 3 9 5 10 14 28 27 29 28 29 30 28 33 40 41 39 38 38 36 39 41 47 44 43 46 45 43 41 39 38 38 39 37 37 35 35 34 31 30 29 29
7 5 5 3 6 3 12 3 9 3 4 2 5 18 22 22 37 26 32 34 33 34 38 37 36 38 45 43 43 48 51 48 47 48 50 45 42 40 40 41 39 39 36 34 34 33 32 30 30
3 3 3 4 4 2 7 9 5 7 6 3 16 11 16 23 40 37 28 31 34 39 37 39 38 36 39 42 49 46 50 51 49 49 50 50 46 43 41 41 42 41 37 36 36 35 34 33 33
18 13 5 1 2 4 6 5 4 5 8 6 3 20 21 21 27 43 42 37 31 35 38 39 39 38 37 38 40 50 50 49 51 47 52 52 48 44 41 42 41 42 40 40 39 39 37 36 35
10 8 7 3 3 3 5 2 4 7 6 4 4 6 13 27 29 24 40 37 45 37 38 38 38 40 43 43 41 41 49 52 49 48 45 50 55 49 48 45 44 44 44 42 43 43 42 40 38
23 11 4 5 3 3 6 4 3 4 1 4 3 5 7 15 24 33 31 33 43 48 39 41 42 40 44 46 46 45 44 49 52 49 49 47 54 58 54 50 47 47 47 46 47 47 45 44 42
23 22 5 4 4 3 1 3 8 11 7 5 7 7 8 10 17 21 30 38 37 36 37 44 44 46 43 39 44 44 43 48 50 53 49 45 48 56 60 54 51 50 50 50 50 50 49 47 46
18 20 18 5 4 3 1 3 12 14 12 6 8 11 12 12 12 18 27 31 38 44 40 44 42 45 48 44 42 45 46 45 46 51 42 53 48 58 54 58 59 54 52 53 53 53 52 51 51
Wind_Direction
226 218 223 222 213 222 229 222 229 221 222 218 215 213 220 220 208 210 200 197 195 193 203 195 189 180 181 182 182 180 179 177 174 167 159 154 150 147 146 143 140 140 137 135 135 129 124 123 122
226 227 221 215 218 220 228 227 228 226 221 219 214 216 221 220 221 237 230 214 199 187 196 198 194 189 188 186 186 186 183 183 182 177 169 164 159 154 152 151 148 145 141 140 138 128 122 116 115
228 227 225 224 225 228 229 234 233 229 227 227 222 220 222 226 226 222 217 223 208 207 202 200 202 198 198 193 191 190 187 186 186 183 180 173 167 162 161 156 152 150 147 145 138 131 120 114 113
225 225 228 230 232 235 231 237 236 233 228 225 219 224 229 222 223 219 226 219 201 207 209 205 207 207 205 201 195 192 190 189 188 185 184 181 176 172 166 160 161 152 151 150 144 135 124 126 129
223 225 225 232 235 238 236 236 236 232 228 228 224 222 229 224 222 215 225 229 227 221 222 211 207 202 203 202 198 194 192 191 189 189 188 186 181 176 170 169 166 160 160 159 151 145 143 145 140
217 223 226 232 237 238 236 233 233 239 234 230 226 224 219 212 220 222 227 234 208 202 219 214 208 203 204 204 200 197 195 193 191 191 190 188 185 182 176 175 172 170 168 165 160 154 156 156 151
219 220 232 235 242 244 239 230 228 230 235 230 229 228 217 213 210 218 226 228 221 207 211 218 214 207 205 206 204 200 197 195 194 194 193 193 192 189 185 183 182 180 176 173 172 168 168 169 161
227 229 240 240 242 249 249 236 233 232 235 228 229 234 226 223 216 224 221 224 222 220 227 227 220 210 206 207 206 202 202 198 197 196 195 195 195 194 191 189 188 187 185 182 179 173 172 173 169
232 235 240 241 243 249 230 236 229 229 230 220 220 226 219 217 226 223 218 216 214 216 218 227 215 209 204 211 207 202 202 200 199 199 199 199 197 194 190 190 196 193 188 188 183 178 179 176 177
237 234 245 241 239 239 237 235 221 225 225 221 220 212 200 202 214 217 216 218 217 216 224 229 212 209 205 212 208 205 202 202 203 204 204 203 201 199 192 193 198 196 193 196 193 193 189 187 185
247 239 235 239 238 232 237 226 219 215 219 222 218 214 215 221 208 215 218 222 224 216 221 222 209 210 207 212 211 208 205 205 205 205 206 204 201 200 197 199 201 197 199 203 199 200 199 192 192
258 245 241 242 241 249 216 227 214 212 211 217 222 217 213 219 223 216 213 218 219 218 215 218 213 207 206 211 213 210 209 208 208 207 205 204 203 200 203 202 201 201 205 202 202 202 201 204 201
261 264 252 255 261 259 252 216 216 216 207 210 216 220 220 216 215 213 215 217 224 221 219 216 213 206 207 211 214 212 213 211 211 209 208 205 202 202 204 203 204 203 204 205 201 204 203 208 214
266 265 263 260 261 274 261 250 235 212 211 208 192 211 214 218 219 213 218 217 221 228 216 220 214 210 208 211 215 216 215 214 211 210 210 206 202 204 205 207 205 202 208 207 209 203 207 215 215
291 284 276 271 262 270 272 262 258 220 215 215 204 202 210 216 210 200 207 214 216 228 224 224 213 212 213 211 213 216 216 214 214 212 210 208 207 206 208 209 207 208 215 209 208 207 214 221 217
299 295 286 293 235 255 258 259 266 249 223 221 209 204 205 204 208 210 209 221 228 222 223 224 215 215 216 212 212 216 216 214 214 214 212 210 210 211 210 209 210 214 217 214 212 217 221 216 210
329 309 306 294 270 263 248 257 269 259 238 227 214 206 204 202 207 205 210 215 218 220 217 219 214 214 217 215 215 216 216 215 214 214 214 212 213 214 213 213 211 215 215 217 215 219 216 211 213
307 322 297 316 302 250 257 221 227 234 236 235 221 212 206 193 202 206 209 210 205 212 217 220 211 211 214 214 215 216 216 215 214 215 215 215 215 216 216 215 215 216 214 218 221 219 216 212 211
288 296 315 337 323 309 236 182 174 224 223 229 231 218 199 197 207 197 196 202 202 205 214 212 209 212 215 216 215 216 217 216 217 215 216 217 217 219 219 219 218 216 217 222 225 222 220 216 214
284 290 311 333 351 334 259 192 190 191 204 228 231 229 204 201 191 200 198 200 203 203 204 213 208 212 218 220 220 219 219 219 222 220 220 221 220 221 223 223 218 218 219 223 223 223 222 219 216
343 315 339 327 352 307 258 125 179 133 194 212 232 224 215 194 195 194 208 205 206 208 208 210 213 218 223 225 220 222 221 222 220 216 220 222 223 224 224 224 220 220 223 228 226 226 225 224 224
0 355 332 337 321 278 8 154 169 153 146 205 228 237 233 203 191 195 197 203 209 216 216 214 215 215 225 229 228 226 226 228 225 222 224 223 224 227 226 226 223 220 225 230 228 226 227 226 223
332 321 326 337 316 330 55 90 348 201 183 178 165 230 241 240 199 194 200 199 209 215 218 222 228 221 218 222 229 228 231 232 231 227 226 228 227 228 228 227 224 222 225 228 225 225 224 224 223
39 97 72 309 271 48 10 121 31 69 312 221 199 197 223 229 212 202 203 202 209 213 217 216 222 228 233 226 225 228 230 234 234 231 227 226 228 230 229 227 225 225 225 223 221 222 222 223 222
21 309 328 16 29 43 34 78 58 65 37 333 241 228 207 213 224 214 215 209 214 218 218 222 223 226 231 227 228 229 231 234 238 238 235 222 227 228 230 229 226 225 225 220 221 222 222 221 220
28 35 58 105 354 282 27 79 64 51 68 52 268 244 249 224 211 222 227 225 226 224 225 226 227 228 230 233 233 233 233 237 240 237 242 217 227 231 235 235 231 229 227 222 221 222 222 221 220
17 25 34 345 355 343 13 53 40 39 24 22 4 257 260 255 242 230 229 226 236 235 232 230 231 233 237 239 237 237 237 237 240 241 240 246 222 230 229 234 234 232 230 226 225 224 223 222 222
36 31 24 5 37 355 333 333 6 28 257 299 294 279 262 239 240 243 236 237 228 228 233 229 232 234 237 239 237 238 238 238 240 243 239 242 249 224 226 230 231 233 232 230 229 227 226 225 224
26 36 26 45 23 142 302 291 356 354 344 314 290 285 276 262 236 233 242 241 247 226 222 231 235 236 238 238 237 235 241 240 239 239 243 243 241 245 223 229 233 234 233 233 231 230 228 227 227
23 16 29 27 343 351 244 283 345 343 347 324 292 286 283 277 274 257 242 241 245 246 227 227 229 238 239 239 240 236 238 242 242 243 242 245 242 246 250 237 229 231 232 231 233 233 232 230 230
Height
3095 3098 3102 3106 3112 3100 3095 3097 3102 3106 3111 3118 3122 3125 3127 3130 3132 3135 3134 3136 3140 3143 3146 3148 3150 3152 3154 3156 3158 3161 3163 3164 3166 3167 3168 3170 3171 3172 3173 3174 3174 3175 3176 3177 3179 3179 3180 3181 3182
3094 3095 3097 3099 3097 3088 3084 3093 3094 3104 3112 3117 3119 3122 3124 3125 3128 3131 3133 3135 3138 3141 3144 3147 3149 3151 3154 3156 3158 3161 3163 3165 3166 3168 3169 3170 3172 3173 3174 3175 3176 3177 3178 3179 3180 3182 3183 3184 3184
3089 3092 3094 3091 3083 3072 3076 3084 3093 3103 3110 3114 3116 3118 3121 3121 3126 3129 3132 3134 3136 3140 3143 3146 3148 3151 3153 3155 3158 3160 3162 3165 3167 3168 3170 3171 3172 3173 3175 3176 3178 3179 3180 3181 3182 3183 3185 3186 3186
3082 3086 3086 3076 3062 3068 3074 3083 3093 3101 3106 3108 3112 3115 3117 3120 3124 3128 3130 3133 3135 3138 3142 3145 3147 3150 3152 3155 3157 3159 3162 3165 3167 3169 3170 3172 3173 3174 3176 3177 3179 3180 3181 3183 3183 3185 3187 3187 3188
3075 3075 3072 3060 3055 3063 3073 3082 3089 3095 3101 3105 3108 3110 3114 3118 3122 3125 3128 3130 3133 3136 3140 3143 3146 3148 3151 3154 3156 3159 3161 3164 3166 3168 3170 3172 3174 3175 3176 3178 3179 3181 3182 3184 3185 3186 3188 3188 3189
3066 3064 3057 3044 3052 3059 3069 3079 3085 3088 3097 3101 3104 3107 3112 3115 3119 3123 3125 3129 3130 3134 3138 3141 3144 3146 3149 3152 3155 3158 3160 3163 3165 3168 3170 3172 3174 3175 3176 3178 3180 3181 3183 3184 3186 3187 3189 3190 3190
3055 3055 3043 3044 3049 3054 3061 3074 3077 3083 3089 3095 3099 3102 3107 3110 3115 3118 3122 3126 3128 3131 3135 3139 3142 3145 3148 3151 3154 3157 3159 3162 3165 3167 3170 3172 3173 3175 3176 3178 3180 3182 3183 3185 3187 3188 3189 3190 3190
3047 3047 3043 3043 3045 3049 3055 3065 3073 3078 3083 3092 3094 3095 3100 3107 3110 3114 3118 3121 3124 3128 3133 3135 3139 3142 3145 3148 3152 3155 3158 3161 3163 3166 3168 3170 3173 3175 3176 3178 3180 3182 3184 3186 3187 3188 3190 3191 3192
3042 3041 3035 3042 3047 3048 3052 3055 3063 3069 3076 3083 3087 3092 3097 3102 3105 3109 3111 3114 3118 3123 3129 3132 3134 3138 3142 3146 3149 3152 3156 3159 3161 3164 3166 3168 3171 3173 3175 3178 3180 3182 3184 3185 3187 3189 3190 3191 3192
3034 3034 3035 3038 3036 3037 3040 3049 3054 3061 3066 3073 3078 3085 3090 3093 3098 3101 3105 3109 3114 3119 3124 3128 3131 3135 3139 3143 3146 3150 3153 3156 3159 3162 3164 3167 3170 3173 3175 3177 3179 3181 3183 3185 3187 3188 3190 3192 3193
3026 3025 3030 3029 3027 3028 3031 3039 3044 3048 3055 3062 3068 3078 3085 3087 3090 3096 3101 3106 3111 3116 3120 3124 3128 3132 3136 3140 3143 3147 3151 3154 3156 3159 3162 3166 3169 3171 3174 3175 3178 3180 3183 3185 3186 3188 3190 3191 3192
3020 3021 3022 3021 3020 3020 3024 3030 3035 3039 3045 3051 3058 3066 3074 3079 3086 3090 3097 3101 3105 3110 3118 3121 3125 3128 3133 3137 3140 3145 3148 3151 3154 3157 3161 3164 3167 3170 3172 3174 3178 3180 3182 3184 3186 3187 3189 3190 3191
3014 3015 3016 3014 3012 3015 3015 3020 3024 3028 3038 3045 3051 3059 3065 3072 3080 3086 3093 3098 3102 3105 3112 3117 3121 3126 3130 3135 3138 3142 3146 3149 3152 3156 3159 3162 3165 3168 3171 3174 3176 3179 3181 3183 3184 3186 3188 3189 3191
3011 3011 3009 3009 3010 3008 3010 3012 3011 3023 3033 3035 3043 3051 3057 3063 3075 3080 3086 3091 3097 3102 3106 3112 3118 3122 3126 3131 3136 3139 3143 3147 3150 3153 3157 3160 3163 3166 3169 3172 3175 3177 3179 3181 3182 3185 3187 3188 3190
3009 3007 3004 3003 3005 3006 3012 3006 3008 3020 3026 3029 3040 3047 3052 3058 3065 3074 3083 3087 3094 3100 3105 3109 3113 3118 3122 3127 3132 3136 3139 3143 3147 3151 3154 3157 3160 3163 3167 3170 3173 3175 3177 3179 3181 3183 3185 3186 3188
3007 3004 3000 3000 3002 3004 3004 3004 3012 3017 3021 3028 3036 3043 3047 3052 3057 3067 3074 3082 3090 3094 3099 3104 3108 3113 3117 3122 3127 3132 3136 3140 3144 3148 3151 3154 3157 3160 3163 3167 3170 3173 3174 3177 3179 3181 3183 3184 3186
3006 3003 3002 3001 3001 3000 3000 3002 3008 3015 3018 3025 3031 3039 3043 3044 3048 3057 3065 3073 3083 3089 3095 3098 3103 3108 3113 3118 3124 3127 3132 3136 3140 3144 3147 3151 3154 3157 3161 3164 3166 3169 3172 3174 3177 3179 3181 3182 3184
3005 3003 3002 3001 3002 3000 2997 3001 3009 3014 3015 3017 3024 3027 3034 3037 3044 3050 3059 3067 3073 3082 3088 3093 3098 3103 3107 3113 3118 3122 3127 3131 3135 3139 3143 3147 3150 3153 3157 3160 3163 3165 3168 3171 3174 3176 3178 3180 3182
3005 3003 3001 3000 2999 2998 2998 3003 3006 3006 3009 3011 3017 3019 3028 3031 3037 3045 3053 3061 3066 3073 3081 3085 3091 3097 3101 3105 3111 3115 3121 3127 3131 3134 3138 3142 3146 3149 3153 3156 3159 3161 3165 3168 3171 3173 3175 3177 3179
3003 3003 3001 2999 2999 3000 2997 3001 3001 3004 3009 3012 3015 3017 3024 3030 3035 3038 3047 3054 3059 3066 3072 3079 3085 3091 3096 3102 3108 3112 3119 3123 3126 3130 3134 3138 3142 3145 3148 3152 3155 3157 3161 3163 3166 3170 3172 3174 3176
3002 3003 3002 3001 2998 2998 2998 2998 2999 3000 3002 3009 3012 3017 3022 3027 3033 3038 3041 3049 3055 3060 3065 3069 3077 3085 3091 3097 3103 3105 3112 3115 3117 3123 3128 3133 3137 3140 3143 3147 3151 3154 3157 3160 3163 3166 3168 3170 3174
3003 3002 3001 3000 2999 2996 2997 2998 2999 3001 3003 3005 3005 3014 3017 3024 3030 3036 3040 3045 3051 3057 3062 3066 3071 3077 3085 3091 3095 3099 3104 3108 3114 3121 3124 3127 3131 3135 3138 3142 3146 3149 3152 3155 3158 3161 3164 3166 3169
3005 3002 3000 2999 2998 2998 2997 2998 3001 3003 3005 3005 3007 3011 3016 3022 3027 3033 3039 3041 3047 3053 3058 3063 3067 3073 3078 3083 3089 3094 3098 3103 3109 3115 3118 3121 3126 3128 3132 3136 3139 3143 3147 3149 3153 3156 3158 3161 3164
3004 3002 3001 3000 2998 2998 2998 2999 3004 3003 3003 3008 3008 3011 3012 3015 3024 3030 3035 3038 3044 3050 3054 3059 3062 3068 3073 3078 3081 3087 3092 3096 3099 3103 3108 3113 3119 3122 3125 3129 3133 3137 3140 3143 3147 3150 3153 3156 3159
3007 3003 3002 3005 3002 3002 3000 3000 3006 3005 3005 3003 3003 3011 3014 3018 3022 3027 3032 3035 3040 3046 3049 3053 3058 3062 3067 3071 3075 3078 3084 3088 3091 3094 3094 3102 3110 3113 3118 3123 3126 3130 3134 3137 3141 3144 3147 3150 3153
3010 3008 3008 3015 3012 3005 3001 3007 3009 3008 3007 3008 3008 3009 3014 3018 3018 3023 3029 3033 3037 3040 3044 3048 3053 3057 3062 3065 3069 3073 3076 3079 3082 3087 3089 3091 3100 3108 3113 3116 3120 3123 3126 3130 3133 3136 3140 3143 3146
3015 3014 3014 3012 3009 3009 3009 3011 3010 3009 3009 3010 3010 3009 3009 3010 3015 3020 3024 3031 3035 3035 3039 3043 3047 3051 3055 3059 3061 3064 3068 3070 3074 3078 3081 3082 3090 3096 3102 3108 3112 3115 3119 3123 3126 3129 3133 3136 3139
3019 3018 3016 3014 3020 3023 3012 3012 3012 3012 3011 3010 3011 3012 3011 3012 3015 3017 3021 3024 3026 3028 3032 3036 3040 3043 3046 3049 3052 3056 3059 3062 3065 3069 3073 3076 3074 3083 3090 3096 3101 3106 3110 3114 3117 3120 3124 3128 3132
3024 3021 3019 3020 3021 3026 3026 3015 3013 3011 3010 3009 3009 3009 3010 3009 3011 3013 3015 3016 3018 3020 3024 3029 3031 3035 3039 3041 3044 3047 3051 3054 3056 3059 3062 3068 3071 3073 3071 3083 3090 3095 3100 3104 3107 3111 3115 3119 3123
3029 3026 3023 3023 3023 3020 3020 3016 3011 3009 3009 3008 3005 3004 3004 3005 3003 3004 3005 3009 3011 3012 3016 3019 3022 3028 3030 3033 3035 3037 3040 3044 3047 3051 3055 3058 3060 3062 3065 3067 3075 3082 3087 3092 3096 3101 3105 3110 3112